Informationen zur Loipe auf der Atzenberger Höhe
 
20.01.2019Höhe
ü. NN
ZeitTemperatur (°C)Nieder-
schlag
Luft-
feuchte
Luft-
druck
Wind
StationaktuellMinimumMaximumaktuellMaximum
Aldingen654 m00:16-6,6-6,6 (05:59)-6,4 (14:43)0,0 l/m²93%1016,13,7 km/h (1 Bft) S-SW14,8 km/h (3 Bft) S-SO (13:07)
Allmannsweiler625 m00:15-9,9-9,9 (00:10)-9,8 (00:00)0,0 l/m²94%1015,30,0 km/h (0 Bft) SO0,0 km/h (0 Bft) SO (00:00)
Allmendingen541 m00:15-10,2-10,2 (07:25)-9,9 (01:00)0,0 l/m²90%1015,80,0 km/h (0 Bft) S-SW16,1 km/h (3 Bft) SO (09:05)
Altshausen574 m00:15-9,2-9,2 (00:01)-9,1 (00:00)0,0 l/m²88%1011,40,0 km/h (0 Bft) W-SW0,0 km/h (0 Bft) W-SW (00:00)
Amstetten-Reutti663 m00:15-10,7-10,7 (00:15)-10,3 (14:40)0,0 l/m²91%1015,30,0 km/h (0 Bft) S27,4 km/h (4 Bft) O (09:45)
Amtzell-Grenis677 m00:15-8,8-8,9 (00:05)-8,8 (00:00)0,0 l/m²87%1016,93,2 km/h (1 Bft) N-NW4,8 km/h (1 Bft) N (00:00)
Aulendorf570 m00:15-8,8-8,8 (00:00)-8,8 (00:00)0,0 l/m²86%1014,90,0 km/h (0 Bft) S-SW0,0 km/h (0 Bft) S-SW (00:00)
Bad Krozingen233 m00:15-3,5-3,8 (08:50)-3,5 (15:35)0,0 l/m²94%1015,40,0 km/h (0 Bft) S-SW6,6 km/h (2 Bft) W-NW (13:25)
Bad Saulgau595 m00:15-8,6-8,6 (00:10)-8,5 (15:15)0,0 l/m²90%1014,31,6 km/h (1 Bft) W-NW12,9 km/h (3 Bft) W (07:00)
Bad Saulgau-Lampertsweiler627 m00:15-8,1-8,1 (00:10)-8,0 (00:00)0,0 l/m²89%1017,80,0 km/h (0 Bft) O-SO0,0 km/h (0 Bft) O-SO (00:00)
Bad Schussenried572 m00:15-8,1-8,1 (00:00)-8,1 (00:00)0,0 l/m²90%1013,60,0 km/h (0 Bft) SW0,0 km/h (0 Bft) SW (00:00)
Bergatreute615 m00:15-9,7-9,9 (00:05)-9,7 (00:15)0,0 l/m²94%1015,73,2 km/h (1 Bft) NO3,2 km/h (1 Bft) N (00:15)
Biberach (Riss), Boehringer533 m00:10-8,5-8,5 (00:10)-8,4 (00:10)0,0 l/m²93%1013,75,8 km/h (2 Bft) SW7,9 km/h (2 Bft) SW (00:10)
Biberach (Riss), Realschule553 m00:15-9,8-9,8 (00:00)-9,8 (00:00)0,0 l/m²93%1016,70,0 km/h (0 Bft) O-SO0,0 km/h (0 Bft) N (00:00)
Bodnegg-Rotheidlen677 m00:15-8,8-8,8 (00:00)-8,7 (00:10)0,0 l/m²93%1015,60,0 km/h (0 Bft) W-NW0,0 km/h (0 Bft) W-NW (00:00)
Burgrieden-Hochstetten510 m00:10-9,0-9,0 (00:00)-9,0 (01:00)0,0 l/m²92%1015,66,4 km/h (2 Bft) SO14,5 km/h (3 Bft) SO (08:15)
Ebersbach579 m00:15-9,2-9,3 (00:00)-9,2 (00:10)0,0 l/m²93%1016,40,0 km/h (0 Bft) O-NO0,0 km/h (0 Bft) O (00:00)
Ebersbach-Boos605 m00:15-9,6-9,7 (00:05)-9,6 (00:00)0,0 l/m²94%1016,10,0 km/h (0 Bft) O-SO0,0 km/h (0 Bft) S (00:00)
Ebersbach-Menzenweiler661 m00:15-7,2-7,2 (00:15)-7,1 (00:00)0,0 l/m²96%1015,94,8 km/h (1 Bft) O-NO6,4 km/h (2 Bft) O-NO (00:00)
Erlenmoos645 m00:15-10,1-10,1 (00:05)-9,9 (00:00)0,0 l/m²84%1015,70,0 km/h (0 Bft) SO0,0 km/h (0 Bft) W (00:00)
Ertingen569 m00:15-8,0-8,1 (00:00)-8,0 (00:10)0,0 l/m²92%1015,30,0 km/h (0 Bft) O-SO0,0 km/h (0 Bft) O-SO (00:00)
Friedrichshafen405 m00:15-5,8-5,8 (00:15)-5,7 (15:25)0,0 l/m²89%1015,76,4 km/h (2 Bft) NO11,3 km/h (2 Bft) N-NO (01:00)
Günzburg443 m00:10-7,7-7,7 (00:10)-7,4 (00:00)0,0 l/m²90%1013,00,0 km/h (0 Bft) W-SW3,2 km/h (1 Bft) W-SW (00:00)
Höchsten802 m00:15-5,9-5,9 (00:00)-5,9 (00:00)0,0 l/m²93%1013,50,0 km/h (0 Bft) SO0,0 km/h (0 Bft) N (00:00)
Horgenzell618 m00:00-5,1-5,1 (00:00)-5,1 (00:00)0,0 l/m²90%1013,48,0 km/h (2 Bft) O-NO8,0 km/h (2 Bft) O-NO (00:00)
Hoßkirch632 m00:15-9,2-9,3 (00:05)-9,2 (00:00)0,0 l/m²92%1014,70,0 km/h (0 Bft) SW0,0 km/h (0 Bft) SW (00:00)
Isny, Am Dreifingerbach695 m00:15-10,2-10,3 (00:05)-10,2 (00:15)0,0 l/m²90%1015,74,8 km/h (1 Bft) O4,8 km/h (1 Bft) O (00:15)
Isny, Weidachweg706 m00:15-10,5-10,8 (00:05)-10,3 (00:00)0,0 l/m²88%1017,23,2 km/h (1 Bft) O-SO3,2 km/h (1 Bft) O (00:00)
Kappel-Grafenhausen163 m00:10-3,5-3,5 (08:20)-3,4 (14:45)0,0 l/m²91%1013,20,0 km/h (0 Bft) N6,4 km/h (2 Bft) N-NO (10:25)
Kirchberg an der Iller584 m00:15-8,2-8,2 (22:15)-8,1 (01:00)0,0 l/m²88%1005,20,0 km/h (0 Bft) N8,0 km/h (2 Bft) S-SW (01:55)
Kißlegg-Staibshof709 m00:15-7,8-7,8 (00:05)-7,7 (00:00)0,0 l/m²95%1015,50,0 km/h (0 Bft) N-NO0,0 km/h (0 Bft) N-NO (00:00)
Kressbronn398 m00:16-5,6-5,6 (00:10)-5,4 (00:00)0,0 l/m²86%1014,40,0 km/h (0 Bft) NO0,0 km/h (0 Bft) NO (00:00)
Kreuzthal-Steinberg-Alpe930 m00:00-4,8-4,9 (00:00)-4,6 (00:00)0,0 l/m²96%1015,02,2 km/h (1 Bft) W6,8 km/h (2 Bft) W-NW (00:00)
Kreuzthal-Steinberggipfel1040 m00:10-3,6-3,9 (00:10)-3,3 (00:10)-83%1015,014,4 km/h (3 Bft) SW25,9 km/h (4 Bft) W-SW (00:10)
Kristberg im Montafon (AT)1425 m00:15-8,3-8,3 (00:00)-8,2 (00:10)0,0 l/m²71%1015,26,4 km/h (2 Bft) N-NO9,7 km/h (2 Bft) N (00:00)
Laupheim500 m00:15-8,2-8,3 (00:15)-8,2 (00:00)0,0 l/m²90%1015,00,0 km/h (0 Bft) SW0,0 km/h (0 Bft) SW (00:00)
Lindau-Insel420 m00:00-5,1-5,1 (08:30)-5,1 (14:45)0,0 l/m²86%1014,84,8 km/h (1 Bft) N11,3 km/h (2 Bft) W (13:55)
Lindau-Stadt412 m00:15-6,3-6,3 (07:45)-6,3 (11:50)0,0 l/m²86%1015,13,2 km/h (1 Bft) N-NO9,7 km/h (2 Bft) N (01:10)
Maierhöfen im Allgäu733 m00:20-14,4-14,8 (00:00)-14,4 (00:20)0,0 l/m²89%1016,90,0 km/h (0 Bft) SW1,6 km/h (1 Bft) SW (00:15)
Maselheim-Sulmingen548 m00:15-10,1-10,1 (00:05)-10,0 (14:15)0,0 l/m²91%1017,03,2 km/h (1 Bft) O-SO12,9 km/h (3 Bft) SO (08:40)
Mietingen-Baltringen528 m00:15-9,4-9,4 (00:10)-9,3 (00:00)0,0 l/m²87%1017,60,0 km/h (0 Bft) W1,6 km/h (1 Bft) W (00:05)
Mindelheim-Apfeltrach620 m00:16-14,2-14,2 (00:08)-14,1 (00:00)0,0 l/m²88%1017,03,2 km/h (1 Bft) S4,8 km/h (1 Bft) S (00:01)
Neresheim552 m00:00-8,8-8,8 (00:00)-8,8 (00:00)0,0 l/m²94%1012,20,0 km/h (0 Bft) S0,0 km/h (0 Bft) S (00:00)
Neukirch570 m00:15-8,3-8,3 (00:05)-8,2 (13:00)0,0 l/m²92%1015,84,8 km/h (1 Bft) N-NO9,7 km/h (2 Bft) W-NW (11:50)
Ochsenhausen, Birkenstraße613 m00:15-11,5-11,5 (00:05)-11,4 (14:15)0,0 l/m²84%1016,23,2 km/h (1 Bft) O11,3 km/h (2 Bft) O-NO (08:05)
Ochsenhausen, Unt. Wiesen575 m00:15-11,3-11,3 (00:05)-11,2 (00:00)0,0 l/m²89%1017,26,4 km/h (2 Bft) S6,4 km/h (2 Bft) S (00:00)
Ostrach619 m00:15-8,8-8,9 (23:45)-8,8 (14:40)0,0 l/m²92%1014,10,0 km/h (0 Bft) S-SO12,9 km/h (3 Bft) N (07:10)
Ravensburg428 m00:15-6,9-6,9 (00:15)-6,8 (00:00)0,0 l/m²90%1014,98,0 km/h (2 Bft) N8,0 km/h (2 Bft) N (00:00)
Ravensburg-Wernsreute511 m00:15-7,1-7,1 (22:45)-7,1 (15:25)0,0 l/m²91%1017,68,0 km/h (2 Bft) N19,3 km/h (3 Bft) N-NO (01:05)
Reichenbach an der Fils343 m00:15-6,6-6,6 (00:05)-6,5 (00:00)0,0 l/m²86%1017,04,8 km/h (1 Bft) O-SO14,5 km/h (3 Bft) O (00:05)
Reinstetten559 m00:15-11,1-11,1 (00:05)-11,0 (00:00)0,0 l/m²91%1016,20,0 km/h (0 Bft) S0,0 km/h (0 Bft) S-SW (00:00)
Riedlingen530 m00:15-6,8-6,9 (00:00)-6,8 (00:10)0,0 l/m²93%1015,40,0 km/h (0 Bft) O-NO0,0 km/h (0 Bft) O-NO (00:00)
Schemmerhofen520 m00:15-9,3-9,3 (00:05)-9,2 (00:00)0,0 l/m²92%1015,20,0 km/h (0 Bft) SW0,0 km/h (0 Bft) SW (00:00)
Silbertal im Montafon (AT)884 m00:15-7,9-7,9 (00:15)-7,8 (00:00)0,0 l/m²89%1017,50,0 km/h (0 Bft) SO0,0 km/h (0 Bft) SO (00:00)
Tettnang466 m00:15-6,1-6,1 (00:05)-6,0 (00:00)0,0 l/m²88%1014,01,6 km/h (1 Bft) NO3,2 km/h (1 Bft) NO (00:00)
Tuttlingen662 m00:10-5,8-5,9 (00:05)-5,8 (00:00)0,0 l/m²90%1015,50,0 km/h (0 Bft) O-SO3,2 km/h (1 Bft) O-SO (00:00)
Ummendorf547 m00:15-10,7-10,8 (00:15)-10,2 (00:00)0,0 l/m²88%1016,60,0 km/h (0 Bft) O-SO3,2 km/h (1 Bft) O-SO (00:05)
Ummendorf-Fischbach558 m00:15-11,6-11,7 (00:05)-11,4 (00:00)0,0 l/m²89%1017,20,0 km/h (0 Bft) S0,0 km/h (0 Bft) S (00:00)
Waldburg707 m00:15-8,4-8,4 (00:05)-8,3 (00:00)0,0 l/m²93%1015,20,0 km/h (0 Bft) N0,0 km/h (0 Bft) N (00:00)
Waltenhofen im Allgäu720 m00:15-13,5-13,8 (00:00)-13,5 (00:15)0,0 l/m²90%1016,40,0 km/h (0 Bft) S-SW0,0 km/h (0 Bft) S-SW (00:00)
Weingarten500 m00:15-8,7-8,7 (00:10)-8,6 (00:00)0,0 l/m²89%1015,41,6 km/h (1 Bft) O4,8 km/h (1 Bft) O (00:10)

Die folgenden Messwerte der Wetterstation Isny werden uns von Timo Riedel zur Verfügung gestellt - vielen Dank!

Weitere Informationen und Messwerte der Wetterstation finden Sie unter: www.wetterstation-isny.de
aktuelle messwerte - wetterwarte süd - Standort Wetterstation Isny-Am Dreifingerbach - 695 über NN
  wetterwarte süd | Isny-Am Dreifingerbach | 695m über NN
Die dargestellten Werte repräsentieren die Daten des aktuellen Tages!
Der Luftdruck ist auf Meereshöhe bezogen!
Die Mond-/Sonnen-Daten beziehen sich auf die Standortkoordinaten von 47° 41' 51" Nord - 10° 2' 3" Ost
  Datum | Zeit
Sonntag, 20. Januar 2019
|
00:15
  Temperatur
aktuell
-10,2°C
Min.(00:05)
-10,3°C
Max.(00:15)
-10,2°C
Durchschnitt
-10,2°C
  Windchill aktuell
-10,2°C
Min.(00:15)
-10,2°C
Max.(00:15)
-10,2°C
Durchschnitt
-10,2°C
  Luftfeuchtigkeit aktuell
90%
Min.(00:15)
90%
Max.(00:15)
90%
Durchschnitt
90%
  Taupunkt aktuell
-11,5°C
Min.(00:15)
-11,5°C
Max.(00:15)
-11,5°C
Durchschnitt
-11,5°C
  Luftdruck aktuell
1015,7 hPa
-- hPa/6h
Min.(00:15)
1015,7 hPa
Max.(00:00)
1015,8 hPa
Durchschnitt
1015,7 hPa
 
-- hPa/1h -- hPa/2h -- hPa/3h -- hPa/12h -- hPa/24h
  Windrichtung 86°/ O
  Wind aktuell
4,8 km/h (1 Bft.)
Max.(00:15)
O 4,8 km/h (1 Bft.)
Durchschnitt
2,0 km/h (1 Bft.)
  Niederschlag
letzte Stunde 0,0 l/m²
heute 0,0 l/m²
aktuelle Woche 14,4 l/m²
aktueller Monat 129,0 l/m²
aktuelles Jahr 129,0 l/m²
  Sonne
Sonnenaufgang gestern 08:01 19. Januar 2019
Sonnenaufgang 08:00
Sonnenzenit 12:30
Sonnenuntergang 17:01
Sonnenaufgang morgen 07:59 21. Januar 2019
Sonnenuntergang morgen 17:03 21. Januar 2019
Sonnenstunden heute 0 Minuten
  Mond
Alter des Mondes 13 Tage, 7 Stunden, 46 Minuten
Mondaufgang 16:18
Mondzenit ---
Monduntergang 07:09
Mondphase 98%
(0% = Neumond, 100% = Vollmond)
nächster Neumond 22:04 4. Februar 2019
erstes Viertel 23:27 12. Februar 2019
nächster Vollmond 06:17 21. Januar 2019
letztes Viertel 22:11 27. Januar 2019
 
 messwerte
 
 hinweis
Die Niederderschlagswerte und Winddaten auf dieser Seite, sowie auf allen Seiten mit Daten unserer digitalen Wetterstation, sind besonders im Winterhalbjahr mit Vorsicht zu genießen, da bei Frost die Wetterparameter Niederschlag, Windstärke und zum Teil auch Windrichtung zeitweise nicht angezeigt werden. Die offiziellen und korrekt dargestellten Wetterdaten der Station finden Sie unter "statistiken > wetterwarte bad schussenried > tages- und monatsdaten".
 
wetterstationen
wetterstationen
- derzeit 73 Stationen
wetterstationen
wetterstationen
- kartographische Darstellung
niederschlagsdatenbank
niederschlagsstationen
- derzeit 103 Stationen
niederschlagsdatenbank
niederschlagsstationen
- kartographische Darstellung
webcams
interessante webcams
im Vorhersagegebiet
 
Sa. 7.30 Uhr - So. 7.30 Uhr (MEZ)
1.Füramoos0,0 l/m²
2.Ulm0,0 l/m²
 
 aktuelles
 
  treffpunkt & service

zugriffe:
insgesamt: 40.647.311
aktueller monat: 320.392
heute: 126
momentan online: 31
 
 
monatshöchstwert: 653.625
vorheriger monat: 400.931
gestern: 13.178
tageshöchstwert: 45.129
 
wetterwarte süd
 
konradstraße 3
info@wetterwarte-sued.com
roland roth
 
88427 bad schussenried